Location: Newark
(3.1475°N, 101.6933°E)
Time: 18:25:29
(UTC+00:00)

LightSail 2 - Visible Passes

Search period start: 17 October 2019 00:00
Search period end: 27 October 2019 00:00
Orbit: 707 x 722 km, 24.0° (Epoch: 17 October)

Date Brightness Start Highest point End Pass type
(mag) Time Alt. Az. Time Alt. Az. Time Alt. Az.
20 Oct 7.4 12:46:33 10° NNW 12:47:37 13° NNW 12:47:37 13° NNW visible
21 Oct 7.1 11:49:41 10° NNW 11:52:08 13° NNE 11:53:46 12° NE visible
22 Oct 6.7 12:36:05 10° NW 12:39:00 24° N 12:39:00 24° N visible
23 Oct 6.7 11:38:56 10° NNW 11:42:44 20° NNE 11:45:16 15° NE visible
23 Oct 7.6 13:23:20 10° WNW 13:24:19 16° NW 13:24:19 16° NW visible
24 Oct 5.5 12:25:53 10° NW 12:30:40 47° NNE 12:30:40 47° NNE visible
25 Oct 6.0 11:28:32 10° NW 11:33:09 33° NNE 11:37:07 13° E visible
25 Oct 6.9 13:13:38 10° WNW 13:16:08 28° W 13:16:08 28° W visible
26 Oct 5.0 12:15:57 10° WNW 12:21:06 86° NNE 12:22:39 46° ESE visible
